map of RKV home
RKV - Airport
Location
City:  Reykjavík, Iceland
ICAO:BIRK
IATA:RKV

Details
Type:Airport (Aerodrome, Airfield)
Latitude:64°07'48"N (64.130000)
Longitude:21°56'26"W (-21.940555)
Elevation:48 ft (15 m)
Variation:13.22°W (WMM2015v2 magnetic declination)
0.32° annual change
Runways:3
Longest:5141 × 148 ft (1567 × 45 m), paved

Time
Time Zone:UTC+0
Local Time:

Weather
METAR:BIRK 041400Z 00000KT 9999 VCFG CAVOK M04/M05 Q1009 R19/790145
TAF:BIRK 041358Z 0415/0515 09005KT 9999 FEW030 TX04/0515Z TNM04/0415Z PROB30
TEMPO 0415/0417 2000 BCFG BKN003
BECMG 0418/0421 09017KT FEW030 BKN050
BECMG 0500/0503 09020G30KT SCT022 BKN032 OVC040
BECMG 0506/0509 09030G44KT PROB40
TEMPO 0512/0515 RA BKN020 OVC030

Related Locations
Nearby:
Farthest:NZTB: 11685 mi / 18805 km
Terra Nova Bay [Mario Zucchelli Station], AQ

Find:

   beyond  
but within

Other Information
Maps:
NOTAMs:
Links:
Sources:

  
  • flag of Iceland
  • flag of Reykjavík
  

Sectional Chart

Flight Planning
at skyvector.com

Satellite Image

Google Maps Satellite view

 

Copyright © 2004-2019 Karl L. Swartz. All rights reserved.
The Great Circle Mapper name and logo are trademarks of the Great Circle Mapper.
All other trademarks mentioned herein belong to their respective owners.
Please see credits for attibutions and further copyright information.

  Follow gcmap on Facebook Follow gcmap on Twitter GCmap on LinkedIn

hCard Microformat

Geo Microformat